Regional Weather Roundup
Issued by NWS

Home | Current Version | Previous Version | Text Only | Print | Product List | Glossary Off
Versions: 1 2 3 4 5 6 7 8 9 10 11 12 13 14 15 16 17 18 19 20 21 22 23 24 25 26 27 28 29 30 31 32 33 34 35 36 37 38 39 40 41 42 43 44 45 46 47 48 49 50

000
ASUS44 KMEG 300700
RWRTN
TENNESSEE HOURLY STATE WEATHER ROUNDUP
NATIONAL WEATHER SERVICE MEMPHIS TN
200 AM CDT MON MAR 30 2015

TNZ002-004-019-021-049-052-054-088>092-300800-
WEST TENNESSEE

CITY           SKY/WX    TMP DP  RH WIND       PRES   REMARKS
MEMPHIS INTL   CLOUDY    59  55  87 CALM      30.07R
NWS MEMPHIS      N/A     56 N/A N/A MISG        N/A
JACKSON        CLOUDY    52  50  93 CALM      30.07S
DYERSBURG      PTCLDY   N/A N/A N/A NW5       30.08S
UNION CITY     CLEAR     52  50  93 N8        30.06R
PARIS          CLOUDY    46  46 100 CALM      30.07R
LEXINGTON      CLOUDY    48  48 100 CALM      30.06S
SAVANNAH       CLOUDY    52  52 100 CALM      30.07F
$$

TNZ008-025-027-028-033-062-065-066-300800-
NORTH MIDDLE TENNESSEE

CITY           SKY/WX    TMP DP  RH WIND       PRES   REMARKS
NASHVILLE      LGT RAIN  52  46  80 CALM      30.09R
CLARKSVILLE    CLOUDY    52  47  83 SW6       30.07R
COOKEVILLE     CLOUDY    48  45  87 CALM      30.06R
CROSSVILLE     CLOUDY    53  35  50 VRB5      30.06F
$$

TNZ061-075-076-078-094-096-097-300800-
SOUTH MIDDLE TENNESSEE

CITY           SKY/WX    TMP DP  RH WIND       PRES   REMARKS
FAYETTEVILLE   CLOUDY    52  45  76 NW13      30.10R
TULLAHOMA      CLOUDY    48  46  93 W7        30.08R
WINCHESTER     MOCLDY    52  46  82 SE3       30.06F
COLUMBIA       CLOUDY   N/A N/A N/A CALM      30.05F
SHELBYVILLE    CLOUDY    50  48  93 S13       30.06F
$$

TNZ017-018-042-046-047-300800-
NORTHEAST TENNESSEE

CITY           SKY/WX    TMP DP  RH WIND       PRES   REMARKS
TRI CITIES     CLOUDY    44  30  57 CALM      30.05F
ELIZABETHTON   CLOUDY    37  23  56 CALM      30.05F
$$

TNZ012-013-036-069-073-074-300800-
CENTRAL EAST TENNESSEE

CITY           SKY/WX    TMP DP  RH WIND       PRES   REMARKS
KNOXVILLE      CLOUDY    54  29  38 W7        30.04F
OAK RIDGE      LGT RAIN  56  32  40 W6        30.08F
GATLINBURG     CLOUDY    41  28  60 CALM      30.04F
$$

TNZ083-085-099-300800-
SOUTHEAST TENNESSEE

CITY           SKY/WX    TMP DP  RH WIND       PRES   REMARKS
CHATTANOOGA    CLOUDY    55  33  43 S9        30.08F
$$

SKY/WX REPORTED AS FAIR MEANS FEW OR NO CLOUDS BELOW
12 THOUSAND FEET.



USA.gov is the U.S. government's official web portal to all federal, state and local government web resources and services.